{"data":{"norad_id":69103,"epoch":"2026-06-16T11:31:07.495968Z","epoch_age_seconds":8310430,"freshness":"OLD","line1":"1 69103U 26107A   26167.47994787  .00006936  00000+0  13276-3 0  9997","line2":"2 69103  51.6336 303.5935 0004796 192.9278 167.1588 15.49257994571674","mean_motion":15.49257994,"eccentricity":0.0004796,"inclination_deg":51.6336,"raan_deg":303.5935,"arg_perigee_deg":192.9278,"mean_anomaly_deg":167.1588,"bstar":0.00013276,"rev_number":57167,"period_min":92.947721139853,"perigee_km":415.63560657632,"apogee_km":422.15532011516,"semimajor_km":6797.0324633457,"source":"CELESTRAK","updated_at":"2026-06-18T09:00:44.484423Z"}}